Weather History for KAUN - November, 2012

Change the Weather History Date:

Wednesday, November 7, 2012

  Actual Average Record
Temperature  
Mean Temperature 64 °F -  
Max Temperature 73 °F 66 °F 82 °F (1949)
Min Temperature 55 °F 46 °F 33 °F (2011)
Degree Days  
Heating Degree Days 1    
Growing Degree Days 14 (Base 50)    
Moisture  
Dew Point 44 °F    
Average Humidity 50    
Maximum Humidity 82    
Minimum Humidity 33    
Precipitation  
Precipitation 0.00 in - - ()
Sea Level Pressure  
Sea Level Pressure 29.99 in    
Wind  
Wind Speed 6 mph (SE)    
Max Wind Speed 12 mph    
Max Gust Speed 17 mph    
Visibility 10 miles    
Events      
Averages and records for this station are not official NWS values.
T = Trace of Precipitation, MM = Missing Value Source: NWS Daily Summary

Daily Weather History Graph

Daily Weather History Graph

Search for Another Location

Airport or City:

Trip Planner

Search our weather history database for the weather conditions in past years. The results will help you decide how hot, cold, wet, or windy it might be!

Date:

Astronomy

Nov. 07, 2012 Rise Set
Actual Time 6:38 AM PST 4:56 PM PST
Civil Twilight 6:10 AM PST 5:24 PM PST
Nautical Twilight 5:38 AM PST 5:56 PM PST
Astronomical Twilight 5:07 AM PST 6:27 PM PST
Moon No Moon Rise 1:05 PM PST (11/7)
Length of Visible Light 11h 13m
Length of Day
10h 17m
Last Quarter, 42% of the Moon is Illuminated
Nov 7
Last Quarter
Nov 13
New
Nov 20
First Quarter
Nov 28
Full
Dec 6
Last Quarter

Hourly Weather History & Observations

Time (PST) Temp. Dew Point Humidity Pressure Visibility Wind Dir Wind Speed Gust Speed Precip Events Conditions
12:15 AM 62.6 °F 42.8 °F 48% 30.05 in 10.0 mi East 10.4 mph - N/A   Clear
12:35 AM 62.6 °F 41.0 °F 45% 30.05 in 10.0 mi East 9.2 mph - N/A   Clear
12:55 AM 62.6 °F 41.0 °F 45% 30.05 in 10.0 mi ESE 6.9 mph - N/A   Clear
1:15 AM 60.8 °F 41.0 °F 48% 30.05 in 10.0 mi ESE 5.8 mph - N/A   Clear
1:35 AM 62.6 °F 39.2 °F 42% 30.05 in 10.0 mi East 4.6 mph - N/A   Clear
1:55 AM 60.8 °F 39.2 °F 45% 30.05 in 10.0 mi East 5.8 mph - N/A   Clear
2:15 AM 60.8 °F 39.2 °F 45% 30.05 in 10.0 mi Calm Calm - N/A   Clear
2:35 AM 62.6 °F 37.4 °F 39% 30.05 in 10.0 mi Calm Calm - N/A   Clear
2:55 AM 62.6 °F 37.4 °F 39% 30.04 in 10.0 mi Calm Calm - N/A   Clear
3:15 AM 60.8 °F 37.4 °F 42% 30.04 in 10.0 mi Calm Calm - N/A   Clear
3:35 AM 60.8 °F 37.4 °F 42% 30.03 in 10.0 mi ESE 8.1 mph - N/A   Clear
3:55 AM 60.8 °F 37.4 °F 42% 30.03 in 10.0 mi Calm Calm - N/A   Clear
4:15 AM 59.0 °F 37.4 °F 45% 30.04 in 10.0 mi Calm Calm - N/A   Clear
4:35 AM 59.0 °F 37.4 °F 45% 30.04 in 10.0 mi East 8.1 mph - N/A   Clear
4:55 AM 60.8 °F 37.4 °F 42% 30.04 in 10.0 mi ESE 5.8 mph - N/A   Clear
5:35 AM 57.2 °F 37.4 °F 48% 30.04 in 10.0 mi East 5.8 mph - N/A   Clear
5:55 AM 57.2 °F 37.4 °F 48% 30.04 in 10.0 mi ESE 9.2 mph - N/A   Clear
6:15 AM 57.2 °F 37.4 °F 48% 30.04 in 10.0 mi East 8.1 mph - N/A   Clear
6:35 AM 57.2 °F 37.4 °F 48% 30.04 in 10.0 mi East 8.1 mph - N/A   Clear
7:15 AM 57.2 °F 37.4 °F 48% 30.04 in 10.0 mi ESE 6.9 mph - N/A   Clear
7:35 AM 59.0 °F 37.4 °F 45% 30.04 in 10.0 mi ESE 10.4 mph - N/A   Clear
7:55 AM 60.8 °F 37.4 °F 42% 30.05 in 10.0 mi ESE 9.2 mph - N/A   Clear
8:15 AM 62.6 °F 37.4 °F 39% 30.04 in 10.0 mi ESE 10.4 mph - N/A   Clear
8:35 AM 62.6 °F 39.2 °F 42% 30.05 in 10.0 mi ESE 9.2 mph - N/A   Clear
8:55 AM 64.4 °F 39.2 °F 40% 30.04 in 10.0 mi ESE 10.4 mph - N/A   Clear
9:15 AM 66.2 °F 41.0 °F 40% 30.04 in 10.0 mi ESE 10.4 mph - N/A   Clear
9:35 AM 69.8 °F 41.0 °F 35% 30.04 in 10.0 mi ESE 8.1 mph - N/A   Clear
9:55 AM 69.8 °F 41.0 °F 35% 30.04 in 10.0 mi SE 8.1 mph - N/A   Clear
10:15 AM 71.6 °F 41.0 °F 33% 30.04 in 10.0 mi SSE 6.9 mph - N/A   Clear
10:35 AM 71.6 °F 42.8 °F 35% 30.04 in 10.0 mi Calm Calm - N/A   Clear
11:15 AM 71.6 °F 44.6 °F 38% 30.03 in 10.0 mi Calm Calm - N/A   Clear
11:35 AM 71.6 °F 44.6 °F 38% 30.02 in 10.0 mi SSW 5.8 mph - N/A   Clear
11:55 AM 71.6 °F 46.4 °F 41% 30.01 in 10.0 mi SSW 3.5 mph - N/A   Clear
12:15 PM 71.6 °F 48.2 °F 43% 30.01 in 10.0 mi SSW 4.6 mph - N/A   Clear
12:35 PM 71.6 °F 48.2 °F 43% 30.00 in 10.0 mi South 4.6 mph - N/A   Clear
12:55 PM 71.6 °F 46.4 °F 41% 29.99 in 10.0 mi South 5.8 mph - N/A   Clear
1:15 PM 71.6 °F 48.2 °F 43% 29.98 in 10.0 mi SSW 4.6 mph - N/A   Clear
1:35 PM 73.4 °F 46.4 °F 38% 29.98 in 10.0 mi South 5.8 mph - N/A   Clear
1:55 PM 73.4 °F 46.4 °F 38% 29.97 in 10.0 mi Calm Calm - N/A   Clear
2:15 PM 73.4 °F 44.6 °F 36% 29.96 in 10.0 mi South 5.8 mph - N/A   Clear
2:35 PM 73.4 °F 46.4 °F 38% 29.96 in 10.0 mi SSE 4.6 mph - N/A   Clear
2:55 PM 73.4 °F 46.4 °F 38% 29.95 in 10.0 mi South 5.8 mph - N/A   Clear
3:35 PM 71.6 °F 46.4 °F 41% 29.95 in 10.0 mi SSW 6.9 mph - N/A   Clear
3:55 PM 71.6 °F 46.4 °F 41% 29.94 in 10.0 mi South 4.6 mph - N/A   Clear
4:15 PM 71.6 °F 46.4 °F 41% 29.94 in 10.0 mi South 5.8 mph - N/A   Clear
4:35 PM 69.8 °F 46.4 °F 43% 29.93 in 10.0 mi South 3.5 mph - N/A   Clear
4:55 PM 68.0 °F 50.0 °F 52% 29.93 in 10.0 mi Calm Calm - N/A   Clear
5:15 PM 66.2 °F 50.0 °F 56% 29.93 in 10.0 mi Calm Calm - N/A   Clear
5:35 PM 64.4 °F 48.2 °F 56% 29.93 in 10.0 mi Calm Calm - N/A   Clear
5:55 PM 64.4 °F 48.2 °F 56% 29.93 in 10.0 mi Calm Calm - N/A   Clear
6:15 PM 64.4 °F 48.2 °F 56% 29.93 in 10.0 mi Calm Calm - N/A   Clear
6:35 PM 62.6 °F 48.2 °F 59% 29.92 in 10.0 mi Calm Calm - N/A   Clear
6:55 PM 62.6 °F 50.0 °F 63% 29.92 in 10.0 mi Calm Calm - N/A   Clear
7:15 PM 62.6 °F 50.0 °F 63% 29.92 in 10.0 mi Calm Calm - N/A   Clear
7:35 PM 60.8 °F 50.0 °F 68% 29.92 in 10.0 mi Calm Calm - N/A   Clear
8:15 PM 60.8 °F 50.0 °F 68% 29.91 in 10.0 mi SSE 9.2 mph - N/A   Clear
8:35 PM 59.0 °F 50.0 °F 72% 29.91 in 10.0 mi SSE 4.6 mph - N/A   Clear
8:55 PM 59.0 °F 50.0 °F 72% 29.91 in 10.0 mi SE 9.2 mph - N/A   Clear
9:15 PM 59.0 °F 50.0 °F 72% 29.90 in 10.0 mi SE 11.5 mph - N/A   Clear
9:35 PM 59.0 °F 50.0 °F 72% 29.90 in 10.0 mi SE 11.5 mph - N/A   Clear
9:55 PM 57.2 °F 50.0 °F 77% 29.90 in 10.0 mi SSE 11.5 mph - N/A   Clear
10:15 PM 57.2 °F 50.0 °F 77% 29.89 in 10.0 mi SSE 11.5 mph - N/A   Clear
10:35 PM 57.2 °F 50.0 °F 77% 29.89 in 10.0 mi SSE 11.5 mph - N/A   Clear
11:15 PM 55.4 °F 50.0 °F 82% 29.88 in 10.0 mi SSE 11.5 mph 16.1 mph N/A   Mostly Cloudy
11:35 PM 55.4 °F 50.0 °F 82% 29.87 in 10.0 mi SSE 11.5 mph 17.3 mph N/A   Partly Cloudy
11:55 PM 55.4 °F 48.2 °F 77% 29.87 in 10.0 mi South 10.4 mph - N/A   Clear